When you browse on this site, cookies collect data to enhance your experience and personalize the content and advertising you see.
Visit our Privacy Policy to learn more. By continuing to use the site, you agree to this use of cookies and data.
  • In Lithuania
  • List of Countries
  • For 7 days
  • Water Temperature
  • Satellite Maps
  • Weather Map
  • Weather Widgets
  • user-avatar
    Login

    Hourly Weather Sydney

    Today, 20 June, Thursday

    Time Temperature Precipitation Wind Pressure Humidity
    00:00 +8°C° 0 mm 3 mps 767 mmHg 63%
    01:00 +7°C° 0 mm 4 mps 767 mmHg 64%
    02:00 +7°C° 0.1 mm 4 mps 767 mmHg 64%
    03:00 +7°C° 0.1 mm 4 mps 767 mmHg 63%
    04:00 +7°C° 0 mm 4 mps 767 mmHg 59%
    05:00 +7°C° 0 mm 4 mps 767 mmHg 61%
    06:00 +7°C° 0 mm 4 mps 767 mmHg 62%
    07:00 +6°C° 0 mm 4 mps 768 mmHg 64%
    08:00 +8°C° 0 mm 4 mps 767 mmHg 60%
    09:00 +10°C° 0 mm 3 mps 767 mmHg 57%
    10:00 +11°C° 0 mm 3 mps 767 mmHg 53%
    11:00 +12°C° 0 mm 3 mps 766 mmHg 52%
    12:00 +14°C° 0 mm 3 mps 766 mmHg 51%
    13:00 +16°C° 0 mm 3 mps 765 mmHg 50%
    14:00 +14°C° 0 mm 3 mps 765 mmHg 55%
    15:00 +14°C° 0 mm 3 mps 765 mmHg 60%
    16:00 +13°C° 0 mm 3 mps 764 mmHg 64%
    17:00 +13°C° 0 mm 2 mps 765 mmHg 68%
    18:00 +13°C° 0 mm 2 mps 765 mmHg 71%
    19:00 +12°C° 0 mm 2 mps 765 mmHg 75%
    20:00 +12°C° 0.1 mm 2 mps 766 mmHg 76%
    21:00 +10°C° 0.1 mm 2 mps 766 mmHg 77%
    22:00 +10°C° 0.1 mm 2 mps 766 mmHg 78%
    23:00 +10°C° 0.3 mm 3 mps 765 mmHg 79%

    Tomorrow, 21 June, Friday

    Time Temperature Precipitation Wind Pressure Humidity
    00:00 +9°C° 0.3 mm 3 mps 765 mmHg 80%
    01:00 +8°C° 0.3 mm 4 mps 765 mmHg 81%
    02:00 +7°C° 0.1 mm 5 mps 765 mmHg 79%
    03:00 +7°C° 0.1 mm 5 mps 765 mmHg 76%
    04:00 +6°C° 0.1 mm 5 mps 765 mmHg 74%
    05:00 +6°C° 0 mm 5 mps 765 mmHg 73%
    06:00 +5°C° 0 mm 5 mps 765 mmHg 72%
    07:00 +5°C° 0 mm 5 mps 766 mmHg 70%
    08:00 +6°C° 0 mm 5 mps 766 mmHg 66%
    09:00 +7°C° 0 mm 5 mps 766 mmHg 61%
    10:00 +9°C° 0 mm 5 mps 766 mmHg 56%
    11:00 +10°C° 0 mm 5 mps 766 mmHg 50%
    12:00 +13°C° 0 mm 5 mps 765 mmHg 44%
    13:00 +14°C° 0 mm 6 mps 765 mmHg 38%
    14:00 +14°C° 0 mm 6 mps 765 mmHg 39%
    15:00 +14°C° 0 mm 6 mps 765 mmHg 40%
    16:00 +13°C° 0 mm 6 mps 765 mmHg 41%
    17:00 +11°C° 0.1 mm 6 mps 766 mmHg 45%
    18:00 +10°C° 0.1 mm 6 mps 766 mmHg 49%
    19:00 +9°C° 0.1 mm 6 mps 767 mmHg 53%
    20:00 +8°C° 0.1 mm 7 mps 767 mmHg 56%
    21:00 +8°C° 0.1 mm 7 mps 768 mmHg 60%
    22:00 +6°C° 0.1 mm 7 mps 768 mmHg 63%
    23:00 +6°C° 0.1 mm 7 mps 768 mmHg 63%

    Day after tomorrow, 22 June, Saturday

    Time Temperature Precipitation Wind Pressure Humidity
    00:00 +5°C° 0.1 mm 7 mps 768 mmHg 63%
    01:00 +5°C° 0.1 mm 7 mps 768 mmHg 63%
    02:00 +5°C° 0.2 mm 7 mps 768 mmHg 65%
    03:00 +5°C° 0.2 mm 7 mps 767 mmHg 66%
    04:00 +5°C° 0.2 mm 7 mps 767 mmHg 68%
    05:00 +4°C° 0.3 mm 7 mps 768 mmHg 68%
    06:00 +4°C° 0.3 mm 7 mps 768 mmHg 68%
    07:00 +4°C° 0.3 mm 7 mps 768 mmHg 68%
    08:00 +6°C° 0.3 mm 7 mps 768 mmHg 64%
    09:00 +9°C° 0.3 mm 7 mps 768 mmHg 60%
    10:00 +11°C° 0.3 mm 7 mps 768 mmHg 56%
    11:00 +11°C° 0.4 mm 8 mps 768 mmHg 55%
    12:00 +12°C° 0.4 mm 8 mps 767 mmHg 54%
    13:00 +13°C° 0.4 mm 8 mps 767 mmHg 53%
    14:00 +13°C° 0.5 mm 8 mps 767 mmHg 55%
    15:00 +13°C° 0.5 mm 8 mps 767 mmHg 56%
    16:00 +12°C° 0.5 mm 8 mps 767 mmHg 58%
    17:00 +11°C° 0.4 mm 7 mps 768 mmHg 62%
    18:00 +10°C° 0.4 mm 7 mps 768 mmHg 65%
    19:00 +9°C° 0.4 mm 7 mps 768 mmHg 69%
    20:00 +8°C° 0.5 mm 6 mps 768 mmHg 71%
    21:00 +8°C° 0.5 mm 6 mps 769 mmHg 73%
    22:00 +8°C° 0.5 mm 6 mps 769 mmHg 76%
    23:00 +7°C° 0.6 mm 6 mps 769 mmHg 76%

    23 June, Sunday

    Time Temperature Precipitation Wind Pressure Humidity
    00:00 +7°C° 0.6 mm 6 mps 768 mmHg 77%
    01:00 +6°C° 0.6 mm 7 mps 768 mmHg 78%
    02:00 +7°C° 0.9 mm 6 mps 768 mmHg 77%
    03:00 +7°C° 0.9 mm 6 mps 768 mmHg 76%
    04:00 +7°C° 0.9 mm 6 mps 768 mmHg 75%
    05:00 +7°C° 0.8 mm 6 mps 768 mmHg 75%
    06:00 +5°C° 0.8 mm 6 mps 769 mmHg 75%
    07:00 +5°C° 0.8 mm 6 mps 769 mmHg 75%
    08:00 +7°C° 0.5 mm 6 mps 769 mmHg 70%
    09:00 +9°C° 0.5 mm 6 mps 769 mmHg 66%
    10:00 +10°C° 0.5 mm 7 mps 769 mmHg 61%
    11:00 +11°C° 0.6 mm 7 mps 769 mmHg 59%
    12:00 +12°C° 0.6 mm 7 mps 768 mmHg 58%
    13:00 +14°C° 0.6 mm 7 mps 768 mmHg 56%
    14:00 +14°C° 1.1 mm 7 mps 768 mmHg 63%
    15:00 +12°C° 1.1 mm 7 mps 768 mmHg 70%
    16:00 +13°C° 1.1 mm 6 mps 768 mmHg 77%
    17:00 +11°C° 1.2 mm 6 mps 768 mmHg 78%
    18:00 +11°C° 1.2 mm 6 mps 769 mmHg 80%
    19:00 +12°C° 1.2 mm 5 mps 769 mmHg 82%
    20:00 +10°C° 0.2 mm 5 mps 769 mmHg 82%
    21:00 +10°C° 0.2 mm 5 mps 769 mmHg 83%
    22:00 +10°C° 0.2 mm 5 mps 769 mmHg 83%
    23:00 +9°C° 0.2 mm 5 mps 769 mmHg 85%

    24 June, Monday

    Time Temperature Precipitation Wind Pressure Humidity
    00:00 +9°C° 0.2 mm 5 mps 769 mmHg 86%
    01:00 +8°C° 0.2 mm 5 mps 769 mmHg 88%
    02:00 +9°C° 0.6 mm 5 mps 770 mmHg 89%
    03:00 +9°C° 0.6 mm 5 mps 770 mmHg 89%
    04:00 +9°C° 0.6 mm 5 mps 770 mmHg 90%
    05:00 +9°C° 1 mm 5 mps 770 mmHg 90%
    06:00 +9°C° 1 mm 5 mps 771 mmHg 91%
    07:00 +9°C° 1 mm 5 mps 771 mmHg 91%
    08:00 +10°C° 0.5 mm 5 mps 771 mmHg 85%
    09:00 +13°C° 0.5 mm 5 mps 772 mmHg 79%
    10:00 +14°C° 0.5 mm 5 mps 772 mmHg 72%
    11:00 +14°C° 0.3 mm 5 mps 772 mmHg 73%
    12:00 +14°C° 0.3 mm 5 mps 771 mmHg 73%
    13:00 +14°C° 0.3 mm 5 mps 771 mmHg 73%
    14:00 +14°C° 0.1 mm 5 mps 771 mmHg 73%
    15:00 +14°C° 0.1 mm 5 mps 771 mmHg 72%
    16:00 +14°C° 0.1 mm 5 mps 771 mmHg 71%
    17:00 +13°C° 0.1 mm 5 mps 771 mmHg 76%
    18:00 +12°C° 0.1 mm 5 mps 772 mmHg 81%
    19:00 +12°C° 0.1 mm 4 mps 772 mmHg 86%
    20:00 +11°C° 0.1 mm 4 mps 772 mmHg 86%
    21:00 +11°C° 0.1 mm 4 mps 772 mmHg 87%
    22:00 +11°C° 0.1 mm 4 mps 772 mmHg 87%
    23:00 +11°C° 0.3 mm 4 mps 772 mmHg 88%

    25 June, Tuesday

    Time Temperature Precipitation Wind Pressure Humidity
    00:00 +11°C° 0.3 mm 4 mps 772 mmHg 88%
    01:00 +10°C° 0.3 mm 4 mps 772 mmHg 88%
    02:00 +10°C° 0.5 mm 3 mps 772 mmHg 89%
    03:00 +10°C° 0.5 mm 3 mps 772 mmHg 90%
    04:00 +10°C° 0.5 mm 3 mps 772 mmHg 90%
    05:00 +10°C° 0.6 mm 3 mps 772 mmHg 91%
    06:00 +10°C° 0.6 mm 4 mps 773 mmHg 91%
    07:00 +10°C° 0.6 mm 4 mps 773 mmHg 91%
    08:00 +11°C° 1 mm 4 mps 773 mmHg 91%
    09:00 +11°C° 1 mm 4 mps 773 mmHg 90%
    10:00 +12°C° 1 mm 4 mps 773 mmHg 89%
    11:00 +13°C° 0.5 mm 4 mps 773 mmHg 86%
    12:00 +13°C° 0.5 mm 4 mps 773 mmHg 82%
    13:00 +14°C° 0.5 mm 5 mps 772 mmHg 79%
    14:00 +14°C° 0.1 mm 5 mps 772 mmHg 78%
    15:00 +14°C° 0.1 mm 5 mps 772 mmHg 78%
    16:00 +14°C° 0.1 mm 5 mps 772 mmHg 77%
    17:00 +14°C° 0 mm 4 mps 773 mmHg 78%
    18:00 +13°C° 0 mm 4 mps 773 mmHg 79%
    19:00 +12°C° 0 mm 4 mps 774 mmHg 80%
    20:00 +12°C° 0 mm 4 mps 774 mmHg 80%
    21:00 +12°C° 0 mm 4 mps 774 mmHg 80%
    22:00 +12°C° 0 mm 3 mps 774 mmHg 80%
    23:00 +12°C° 0 mm 3 mps 774 mmHg 81%
    Show more